Year,Month,Day,Hour,Minute,Value (Times are PST for temperature in C)
2007,07,28,00,00,16.90
2007,07,28,00,01,16.90
2007,07,28,00,02,16.90
2007,07,28,00,03,16.90
2007,07,28,00,04,16.80
2007,07,28,00,05,16.90
2007,07,28,00,06,16.80
2007,07,28,00,07,16.80
2007,07,28,00,08,16.80
2007,07,28,00,09,16.80
2007,07,28,00,10,16.80
2007,07,28,00,11,16.80
2007,07,28,00,12,16.80
2007,07,28,00,13,16.80
2007,07,28,00,14,16.80
2007,07,28,00,15,16.70
2007,07,28,00,16,16.70
2007,07,28,00,17,16.70
2007,07,28,00,18,16.70
2007,07,28,00,19,16.70
2007,07,28,00,20,16.70
2007,07,28,00,21,16.70
2007,07,28,00,22,16.70
2007,07,28,00,23,16.70
2007,07,28,00,24,16.70
2007,07,28,00,25,16.70
2007,07,28,00,26,16.70
2007,07,28,00,27,16.70
2007,07,28,00,28,16.70
2007,07,28,00,29,16.70
2007,07,28,00,30,16.60
2007,07,28,00,31,16.60
2007,07,28,00,32,16.60
2007,07,28,00,33,16.60
2007,07,28,00,34,16.60
2007,07,28,00,35,16.60
2007,07,28,00,36,16.60
2007,07,28,00,37,16.50
2007,07,28,00,38,16.40
2007,07,28,00,39,16.40
2007,07,28,00,40,16.40
2007,07,28,00,41,16.40
2007,07,28,00,42,16.40
2007,07,28,00,43,16.40
2007,07,28,00,44,16.40
2007,07,28,00,45,16.40
2007,07,28,00,46,16.40
2007,07,28,00,47,16.40
2007,07,28,00,48,16.40
2007,07,28,00,49,16.40
2007,07,28,00,50,16.40
2007,07,28,00,51,16.40
2007,07,28,00,52,16.40
2007,07,28,00,53,16.40
2007,07,28,00,54,16.40
2007,07,28,00,55,16.40
2007,07,28,00,56,16.40
2007,07,28,00,57,16.40
2007,07,28,00,58,16.40
2007,07,28,00,59,16.40
2007,07,28,01,00,16.40
2007,07,28,01,01,16.40
2007,07,28,01,02,16.40
2007,07,28,01,03,16.40
2007,07,28,01,04,16.40
2007,07,28,01,05,16.40
2007,07,28,01,06,16.40
2007,07,28,01,07,16.40
2007,07,28,01,08,16.40
2007,07,28,01,09,16.40
2007,07,28,01,10,16.40
2007,07,28,01,11,16.40
2007,07,28,01,12,16.40
2007,07,28,01,13,16.30
2007,07,28,01,14,16.30
2007,07,28,01,15,16.30
2007,07,28,01,16,16.30
2007,07,28,01,17,16.30
2007,07,28,01,18,16.30
2007,07,28,01,19,16.30
2007,07,28,01,20,16.30
2007,07,28,01,21,16.30
2007,07,28,01,22,16.30
2007,07,28,01,23,16.30
2007,07,28,01,24,16.30
2007,07,28,01,25,16.30
2007,07,28,01,26,16.30
2007,07,28,01,27,16.30
2007,07,28,01,28,16.30
2007,07,28,01,29,16.30
2007,07,28,01,30,16.40
2007,07,28,01,31,16.40
2007,07,28,01,32,16.40
2007,07,28,01,33,16.40
2007,07,28,01,34,16.40
2007,07,28,01,35,16.40
2007,07,28,01,36,16.40
2007,07,28,01,37,16.40
2007,07,28,01,38,16.40
2007,07,28,01,39,16.40
2007,07,28,01,40,16.40
2007,07,28,01,41,16.40
2007,07,28,01,42,16.40
2007,07,28,01,43,16.40
2007,07,28,01,44,16.40
2007,07,28,01,45,16.40
2007,07,28,01,46,16.40
2007,07,28,01,47,16.40
2007,07,28,01,48,16.40
2007,07,28,01,49,16.40
2007,07,28,01,50,16.40
2007,07,28,01,51,16.40
2007,07,28,01,52,16.40
2007,07,28,01,53,16.40
2007,07,28,01,54,16.40
2007,07,28,01,55,16.40
2007,07,28,01,56,16.40
2007,07,28,01,57,16.40
2007,07,28,01,58,16.40
2007,07,28,01,59,16.40
2007,07,28,02,00,16.40
2007,07,28,02,01,16.40
2007,07,28,02,02,16.40
2007,07,28,02,03,16.40
2007,07,28,02,04,16.40
2007,07,28,02,05,16.40
2007,07,28,02,06,16.30
2007,07,28,02,07,16.30
2007,07,28,02,08,16.30
2007,07,28,02,09,16.30
2007,07,28,02,10,16.30
2007,07,28,02,11,16.30
2007,07,28,02,12,16.30
2007,07,28,02,13,16.30
2007,07,28,02,14,16.30
2007,07,28,02,15,16.20
2007,07,28,02,16,16.20
2007,07,28,02,17,16.20
2007,07,28,02,18,16.20
2007,07,28,02,19,16.20
2007,07,28,02,20,16.20
2007,07,28,02,21,16.20
2007,07,28,02,22,16.20
2007,07,28,02,23,16.20
2007,07,28,02,24,16.20
2007,07,28,02,25,16.20
2007,07,28,02,26,16.20
2007,07,28,02,27,16.20
2007,07,28,02,28,16.20
2007,07,28,02,29,16.20
2007,07,28,02,30,16.10
2007,07,28,02,31,16.10
2007,07,28,02,32,16.10
2007,07,28,02,33,16.10
2007,07,28,02,34,16.10
2007,07,28,02,35,16.10
2007,07,28,02,36,16.10
2007,07,28,02,37,16.10
2007,07,28,02,38,16.10
2007,07,28,02,39,16.10
2007,07,28,02,40,16.10
2007,07,28,02,41,16.10
2007,07,28,02,42,16.20
2007,07,28,02,43,16.20
2007,07,28,02,44,16.20
2007,07,28,02,45,16.20
2007,07,28,02,46,16.20
2007,07,28,02,47,16.20
2007,07,28,02,48,16.30
2007,07,28,02,49,16.30
2007,07,28,02,50,16.30
2007,07,28,02,51,16.30
2007,07,28,02,52,16.30
2007,07,28,02,53,16.40
2007,07,28,02,54,16.40
2007,07,28,02,55,16.40
2007,07,28,02,56,16.40
2007,07,28,02,57,16.40
2007,07,28,02,58,16.40
2007,07,28,02,59,16.40
2007,07,28,03,00,16.40
2007,07,28,03,01,16.40
2007,07,28,03,02,16.40
2007,07,28,03,03,16.40
2007,07,28,03,04,16.40
2007,07,28,03,05,16.40
2007,07,28,03,06,16.40
2007,07,28,03,07,16.40
2007,07,28,03,08,16.40
2007,07,28,03,09,16.40
2007,07,28,03,10,16.40
2007,07,28,03,11,16.40
2007,07,28,03,12,16.40
2007,07,28,03,13,16.40
2007,07,28,03,14,16.40
2007,07,28,03,15,16.40
2007,07,28,03,16,16.40
2007,07,28,03,17,16.40
2007,07,28,03,18,16.40
2007,07,28,03,19,16.40
2007,07,28,03,20,16.40
2007,07,28,03,21,16.40
2007,07,28,03,22,16.40
2007,07,28,03,23,16.40
2007,07,28,03,24,16.40
2007,07,28,03,25,16.30
2007,07,28,03,26,16.30
2007,07,28,03,27,16.30
2007,07,28,03,28,16.30
2007,07,28,03,29,16.30
2007,07,28,03,30,16.30
2007,07,28,03,31,16.30
2007,07,28,03,32,16.30
2007,07,28,03,33,16.20
2007,07,28,03,34,16.20
2007,07,28,03,35,16.20
2007,07,28,03,36,16.20
2007,07,28,03,37,16.20
2007,07,28,03,38,16.10
2007,07,28,03,39,16.10
2007,07,28,03,40,16.10
2007,07,28,03,41,16.10
2007,07,28,03,42,16.10
2007,07,28,03,43,16.10
2007,07,28,03,44,16.10
2007,07,28,03,45,16.10
2007,07,28,03,46,16.10
2007,07,28,03,47,16.10
2007,07,28,03,48,15.90
2007,07,28,03,49,15.90
2007,07,28,03,50,15.90
2007,07,28,03,51,15.90
2007,07,28,03,52,15.90
2007,07,28,03,53,15.90
2007,07,28,03,54,15.90
2007,07,28,03,55,15.90
2007,07,28,03,56,15.90
2007,07,28,03,57,15.90
2007,07,28,03,58,15.90
2007,07,28,03,59,15.90
2007,07,28,04,00,15.90
2007,07,28,04,01,15.90
2007,07,28,04,02,15.90
2007,07,28,04,03,15.90
2007,07,28,04,04,15.90
2007,07,28,04,05,15.90
2007,07,28,04,06,15.90
2007,07,28,04,07,15.80
2007,07,28,04,08,15.80
2007,07,28,04,09,15.80
2007,07,28,04,10,15.80
2007,07,28,04,11,15.80
2007,07,28,04,12,15.80
2007,07,28,04,13,15.80
2007,07,28,04,14,15.80
2007,07,28,04,15,15.80
2007,07,28,04,16,15.80
2007,07,28,04,17,15.80
2007,07,28,04,18,15.80
2007,07,28,04,19,15.80
2007,07,28,04,20,15.80
2007,07,28,04,21,15.80
2007,07,28,04,22,15.80
2007,07,28,04,23,15.80
2007,07,28,04,24,15.80
2007,07,28,04,25,15.80
2007,07,28,04,26,15.80
2007,07,28,04,27,15.80
2007,07,28,04,28,15.70
2007,07,28,04,29,15.70
2007,07,28,04,30,15.70
2007,07,28,04,31,15.70
2007,07,28,04,32,15.70
2007,07,28,04,33,15.70
2007,07,28,04,34,15.70
2007,07,28,04,35,15.70
2007,07,28,04,36,15.70
2007,07,28,04,37,15.70
2007,07,28,04,38,15.70
2007,07,28,04,39,15.70
2007,07,28,04,40,15.70
2007,07,28,04,41,15.70
2007,07,28,04,42,15.70
2007,07,28,04,43,15.70
2007,07,28,04,44,15.70
2007,07,28,04,45,15.70
2007,07,28,04,46,15.70
2007,07,28,04,47,15.70
2007,07,28,04,48,15.70
2007,07,28,04,49,15.70
2007,07,28,04,50,15.70
2007,07,28,04,51,15.70
2007,07,28,04,52,15.70
2007,07,28,04,53,15.70
2007,07,28,04,54,15.80
2007,07,28,04,55,15.80
2007,07,28,04,56,15.80
2007,07,28,04,57,15.80
2007,07,28,04,58,15.80
2007,07,28,04,59,15.80
2007,07,28,05,00,15.90
2007,07,28,05,01,15.90
2007,07,28,05,02,16.00
2007,07,28,05,03,16.10
2007,07,28,05,04,16.10
2007,07,28,05,05,16.10
2007,07,28,05,06,16.10
2007,07,28,05,07,16.10
2007,07,28,05,08,16.10
2007,07,28,05,09,16.10
2007,07,28,05,10,16.10
2007,07,28,05,11,16.10
2007,07,28,05,12,16.10
2007,07,28,05,13,16.10
2007,07,28,05,14,16.20
2007,07,28,05,15,16.20
2007,07,28,05,16,16.20
2007,07,28,05,17,16.20
2007,07,28,05,18,16.20
2007,07,28,05,19,16.20
2007,07,28,05,20,16.20
2007,07,28,05,21,16.20
2007,07,28,05,22,16.20
2007,07,28,05,23,16.20
2007,07,28,05,24,16.20
2007,07,28,05,25,16.20
2007,07,28,05,26,16.20
2007,07,28,05,27,16.20
2007,07,28,05,28,16.10
2007,07,28,05,29,16.10
2007,07,28,05,30,16.10
2007,07,28,05,31,16.10
2007,07,28,05,32,16.10
2007,07,28,05,33,16.10
2007,07,28,05,34,16.10
2007,07,28,05,35,16.10
2007,07,28,05,36,16.10
2007,07,28,05,37,16.10
2007,07,28,05,38,16.10
2007,07,28,05,39,16.10
2007,07,28,05,40,16.10
2007,07,28,05,41,16.00
2007,07,28,05,42,15.90
2007,07,28,05,43,15.90
2007,07,28,05,44,15.90
2007,07,28,05,45,15.90
2007,07,28,05,46,15.80
2007,07,28,05,47,15.80
2007,07,28,05,48,15.80
2007,07,28,05,49,15.80
2007,07,28,05,50,15.80
2007,07,28,05,51,15.80
2007,07,28,05,52,15.80
2007,07,28,05,53,15.80
2007,07,28,05,54,15.80
2007,07,28,05,55,15.70
2007,07,28,05,56,15.70
2007,07,28,05,57,15.70
2007,07,28,05,58,15.70
2007,07,28,05,59,15.70
2007,07,28,06,00,15.70
2007,07,28,06,01,15.70
2007,07,28,06,02,15.70
2007,07,28,06,03,15.70
2007,07,28,06,04,15.70
2007,07,28,06,05,15.60
2007,07,28,06,06,15.60
2007,07,28,06,07,15.60
2007,07,28,06,08,15.60
2007,07,28,06,09,15.60
2007,07,28,06,10,15.60
2007,07,28,06,11,15.60
2007,07,28,06,12,15.60
2007,07,28,06,13,15.50
2007,07,28,06,14,15.50
2007,07,28,06,15,15.50
2007,07,28,06,16,15.50
2007,07,28,06,17,15.50
2007,07,28,06,18,15.50
2007,07,28,06,19,15.50
2007,07,28,06,20,15.50
2007,07,28,06,21,15.50
2007,07,28,06,22,15.50
2007,07,28,06,23,15.50
2007,07,28,06,24,15.50
2007,07,28,06,25,15.40
2007,07,28,06,26,15.40
2007,07,28,06,27,15.40
2007,07,28,06,28,15.40
2007,07,28,06,29,15.40
2007,07,28,06,30,15.40
2007,07,28,06,31,15.40
2007,07,28,06,32,15.30
2007,07,28,06,33,15.30
2007,07,28,06,34,15.30
2007,07,28,06,35,15.30
2007,07,28,06,36,15.30
2007,07,28,06,37,15.30
2007,07,28,06,38,15.30
2007,07,28,06,39,15.30
2007,07,28,06,40,15.30
2007,07,28,06,41,15.30
2007,07,28,06,42,15.30
2007,07,28,06,43,15.30
2007,07,28,06,44,15.30
2007,07,28,06,45,15.30
2007,07,28,06,46,15.40
2007,07,28,06,47,15.50
2007,07,28,06,48,15.50
2007,07,28,06,49,15.60
2007,07,28,06,50,15.70
2007,07,28,06,51,15.80
2007,07,28,06,52,15.80
2007,07,28,06,53,15.90
2007,07,28,06,54,16.00
2007,07,28,06,55,16.10
2007,07,28,06,56,16.10
2007,07,28,06,57,16.10
2007,07,28,06,58,16.10
2007,07,28,06,59,16.10
2007,07,28,07,00,16.20
2007,07,28,07,01,16.20
2007,07,28,07,02,16.30
2007,07,28,07,03,16.30
2007,07,28,07,04,16.40
2007,07,28,07,05,16.40
2007,07,28,07,06,16.40
2007,07,28,07,07,16.40
2007,07,28,07,08,16.50
2007,07,28,07,09,16.60
2007,07,28,07,10,16.60
2007,07,28,07,11,16.70
2007,07,28,07,12,16.70
2007,07,28,07,13,16.70
2007,07,28,07,14,16.70
2007,07,28,07,15,16.80
2007,07,28,07,16,16.80
2007,07,28,07,17,16.80
2007,07,28,07,18,16.90
2007,07,28,07,19,16.90
2007,07,28,07,20,16.90
2007,07,28,07,21,16.90
2007,07,28,07,22,16.90
2007,07,28,07,23,17.00
2007,07,28,07,24,17.00
2007,07,28,07,25,17.00
2007,07,28,07,26,17.10
2007,07,28,07,27,17.10
2007,07,28,07,28,17.20
2007,07,28,07,29,17.20
2007,07,28,07,30,17.30
2007,07,28,07,31,17.30
2007,07,28,07,32,17.30
2007,07,28,07,33,17.30
2007,07,28,07,34,17.30
2007,07,28,07,35,17.30
2007,07,28,07,36,17.30
2007,07,28,07,37,17.30
2007,07,28,07,38,17.30
2007,07,28,07,39,17.30
2007,07,28,07,40,17.30
2007,07,28,07,41,17.30
2007,07,28,07,42,17.30
2007,07,28,07,43,17.30
2007,07,28,07,44,17.30
2007,07,28,07,45,17.30
2007,07,28,07,46,17.30
2007,07,28,07,47,17.30
2007,07,28,07,48,17.30
2007,07,28,07,49,17.30
2007,07,28,07,50,17.30
2007,07,28,07,51,17.30
2007,07,28,07,52,17.40
2007,07,28,07,53,17.40
2007,07,28,07,54,17.40
2007,07,28,07,55,17.40
2007,07,28,07,56,17.50
2007,07,28,07,57,17.50
2007,07,28,07,58,17.50
2007,07,28,07,59,17.50
2007,07,28,08,00,17.60
2007,07,28,08,01,17.60
2007,07,28,08,02,17.60
2007,07,28,08,03,17.70
2007,07,28,08,04,17.70
2007,07,28,08,05,17.70
2007,07,28,08,06,17.80
2007,07,28,08,07,17.80
2007,07,28,08,08,17.70
2007,07,28,08,09,17.70
2007,07,28,08,10,17.70
2007,07,28,08,11,17.70
2007,07,28,08,12,17.80
2007,07,28,08,13,17.80
2007,07,28,08,14,17.90
2007,07,28,08,15,17.90
2007,07,28,08,16,17.90
2007,07,28,08,17,17.90
2007,07,28,08,18,17.90
2007,07,28,08,19,18.00
2007,07,28,08,20,18.10
2007,07,28,08,21,18.10
2007,07,28,08,22,18.20
2007,07,28,08,23,18.20
2007,07,28,08,24,18.20
2007,07,28,08,25,18.20
2007,07,28,08,26,18.30
2007,07,28,08,27,18.40
2007,07,28,08,28,18.40
2007,07,28,08,29,18.40
2007,07,28,08,30,18.40
2007,07,28,08,31,18.40
2007,07,28,08,32,18.50
2007,07,28,08,33,18.50
2007,07,28,08,34,18.60
2007,07,28,08,35,18.60
2007,07,28,08,36,18.70
2007,07,28,08,37,18.70
2007,07,28,08,38,18.70
2007,07,28,08,39,18.70
2007,07,28,08,40,18.70
2007,07,28,08,41,18.60
2007,07,28,08,42,18.50
2007,07,28,08,43,18.50
2007,07,28,08,44,18.50
2007,07,28,08,45,18.50
2007,07,28,08,46,18.50
2007,07,28,08,47,18.50
2007,07,28,08,48,18.50
2007,07,28,08,49,18.50
2007,07,28,08,50,18.50
2007,07,28,08,51,18.50
2007,07,28,08,52,18.50
2007,07,28,08,53,18.30
2007,07,28,08,54,18.30
2007,07,28,08,55,18.40
2007,07,28,08,56,18.40
2007,07,28,08,57,18.40
2007,07,28,08,58,18.40
2007,07,28,08,59,18.40
2007,07,28,09,00,18.30
2007,07,28,09,01,18.30
2007,07,28,09,02,18.30
2007,07,28,09,03,18.30
2007,07,28,09,04,18.20
2007,07,28,09,05,18.20
2007,07,28,09,06,18.20
2007,07,28,09,07,18.30
2007,07,28,09,08,18.40
2007,07,28,09,09,18.40
2007,07,28,09,10,18.50
2007,07,28,09,11,18.50
2007,07,28,09,12,18.60
2007,07,28,09,13,18.60
2007,07,28,09,14,18.70
2007,07,28,09,15,18.70
2007,07,28,09,16,18.80
2007,07,28,09,17,18.90
2007,07,28,09,18,18.90
2007,07,28,09,19,19.00
2007,07,28,09,20,19.10
2007,07,28,09,21,19.20
2007,07,28,09,22,19.20
2007,07,28,09,23,19.30
2007,07,28,09,24,19.40
2007,07,28,09,25,19.40
2007,07,28,09,26,19.50
2007,07,28,09,27,19.60
2007,07,28,09,28,19.70
2007,07,28,09,29,19.80
2007,07,28,09,30,19.80
2007,07,28,09,31,19.70
2007,07,28,09,32,19.70
2007,07,28,09,33,19.60
2007,07,28,09,34,19.60
2007,07,28,09,35,19.60
2007,07,28,09,36,19.70
2007,07,28,09,37,19.80
2007,07,28,09,38,19.90
2007,07,28,09,39,19.90
2007,07,28,09,40,19.90
2007,07,28,09,41,19.90
2007,07,28,09,42,19.90
2007,07,28,09,43,19.70
2007,07,28,09,44,19.70
2007,07,28,09,45,19.80
2007,07,28,09,46,19.80
2007,07,28,09,47,19.80
2007,07,28,09,48,19.90
2007,07,28,09,49,19.90
2007,07,28,09,50,20.00
2007,07,28,09,51,20.10
2007,07,28,09,52,20.00
2007,07,28,09,53,20.00
2007,07,28,09,54,20.10
2007,07,28,09,55,20.10
2007,07,28,09,56,20.20
2007,07,28,09,57,20.20
2007,07,28,09,58,20.20
2007,07,28,09,59,20.20
2007,07,28,10,00,20.20
2007,07,28,10,01,20.30
2007,07,28,10,02,20.40
2007,07,28,10,03,20.50
2007,07,28,10,04,20.60
2007,07,28,10,05,20.60
2007,07,28,10,06,20.70
2007,07,28,10,07,20.70
2007,07,28,10,08,20.70
2007,07,28,10,09,20.60
2007,07,28,10,10,20.70
2007,07,28,10,11,20.70
2007,07,28,10,12,20.60
2007,07,28,10,13,20.50
2007,07,28,10,14,20.50
2007,07,28,10,15,20.50
2007,07,28,10,16,20.50
2007,07,28,10,17,20.50
2007,07,28,10,18,20.50
2007,07,28,10,19,20.50
2007,07,28,10,20,20.40
2007,07,28,10,21,20.20
2007,07,28,10,22,20.20
2007,07,28,10,23,20.20
2007,07,28,10,24,20.20
2007,07,28,10,25,20.10
2007,07,28,10,26,20.10
2007,07,28,10,27,20.00
2007,07,28,10,28,19.90
2007,07,28,10,29,19.90
2007,07,28,10,30,19.90
2007,07,28,10,31,19.90
2007,07,28,10,32,20.00
2007,07,28,10,33,20.20
2007,07,28,10,34,20.20
2007,07,28,10,35,20.30
2007,07,28,10,36,20.40
2007,07,28,10,37,20.40
2007,07,28,10,38,20.30
2007,07,28,10,39,20.40
2007,07,28,10,40,20.50
2007,07,28,10,41,20.50
2007,07,28,10,42,20.60
2007,07,28,10,43,20.70
2007,07,28,10,44,20.80
2007,07,28,10,45,20.90
2007,07,28,10,46,21.00
2007,07,28,10,47,21.00
2007,07,28,10,48,21.10
2007,07,28,10,49,21.20
2007,07,28,10,50,21.10
2007,07,28,10,51,20.80
2007,07,28,10,52,20.50
2007,07,28,10,53,20.50
2007,07,28,10,54,20.50
2007,07,28,10,55,20.50
2007,07,28,10,56,20.50
2007,07,28,10,57,20.50
2007,07,28,10,58,20.60
2007,07,28,10,59,20.70
2007,07,28,11,00,20.70
2007,07,28,11,01,20.70
2007,07,28,11,02,20.60
2007,07,28,11,03,20.60
2007,07,28,11,04,20.50
2007,07,28,11,05,20.50
2007,07,28,11,06,20.60
2007,07,28,11,07,20.70
2007,07,28,11,08,20.80
2007,07,28,11,09,21.00
2007,07,28,11,10,21.20
2007,07,28,11,11,21.20
2007,07,28,11,12,21.20
2007,07,28,11,13,21.20
2007,07,28,11,14,21.30
2007,07,28,11,15,21.30
2007,07,28,11,16,21.20
2007,07,28,11,17,21.00
2007,07,28,11,18,20.90
2007,07,28,11,19,20.70
2007,07,28,11,20,20.60
2007,07,28,11,21,20.60
2007,07,28,11,22,20.50
2007,07,28,11,23,20.40
2007,07,28,11,24,20.30
2007,07,28,11,25,20.20
2007,07,28,11,26,20.20
2007,07,28,11,27,20.20
2007,07,28,11,28,20.10
2007,07,28,11,29,20.10
2007,07,28,11,30,20.20
2007,07,28,11,31,20.20
2007,07,28,11,32,20.20
2007,07,28,11,33,20.20
2007,07,28,11,34,20.30
2007,07,28,11,35,20.30
2007,07,28,11,36,20.30
2007,07,28,11,37,20.30
2007,07,28,11,38,20.20
2007,07,28,11,39,20.20
2007,07,28,11,40,20.20
2007,07,28,11,41,20.30
2007,07,28,11,42,20.40
2007,07,28,11,43,20.50
2007,07,28,11,44,20.70
2007,07,28,11,45,20.90
2007,07,28,11,46,21.00
2007,07,28,11,47,21.10
2007,07,28,11,48,21.20
2007,07,28,11,49,21.20
2007,07,28,11,50,21.20
2007,07,28,11,51,21.30
2007,07,28,11,52,21.30
2007,07,28,11,53,21.30
2007,07,28,11,54,21.30
2007,07,28,11,55,21.20
2007,07,28,11,56,21.20
2007,07,28,11,57,21.30
2007,07,28,11,58,21.20
2007,07,28,11,59,21.20
2007,07,28,12,00,21.30
2007,07,28,12,01,21.30
2007,07,28,12,02,21.20
2007,07,28,12,03,21.20
2007,07,28,12,04,21.10
2007,07,28,12,05,20.90
2007,07,28,12,06,20.80
2007,07,28,12,07,20.90
2007,07,28,12,08,20.80
2007,07,28,12,09,20.80
2007,07,28,12,10,20.60
2007,07,28,12,11,20.60
2007,07,28,12,12,20.50
2007,07,28,12,13,20.50
2007,07,28,12,14,20.60
2007,07,28,12,15,20.70
2007,07,28,12,16,20.90
2007,07,28,12,17,21.00
2007,07,28,12,18,21.00
2007,07,28,12,19,21.00
2007,07,28,12,20,21.00
2007,07,28,12,21,21.10
2007,07,28,12,22,21.10
2007,07,28,12,23,21.20
2007,07,28,12,24,21.10
2007,07,28,12,25,21.00
2007,07,28,12,26,20.70
2007,07,28,12,27,20.50
2007,07,28,12,28,20.30
2007,07,28,12,29,20.10
2007,07,28,12,30,19.90
2007,07,28,12,31,19.70
2007,07,28,12,32,19.50
2007,07,28,12,33,19.50
2007,07,28,12,34,19.70
2007,07,28,12,35,19.90
2007,07,28,12,36,19.90
2007,07,28,12,37,19.90
2007,07,28,12,38,19.90
2007,07,28,12,39,19.90
2007,07,28,12,40,19.90
2007,07,28,12,41,19.80
2007,07,28,12,42,19.90
2007,07,28,12,43,19.90
2007,07,28,12,44,19.90
2007,07,28,12,45,19.90
2007,07,28,12,46,19.90
2007,07,28,12,47,19.90
2007,07,28,12,48,19.90
2007,07,28,12,49,20.00
2007,07,28,12,50,20.10
2007,07,28,12,51,20.10
2007,07,28,12,52,20.00
2007,07,28,12,53,19.80
2007,07,28,12,54,19.60
2007,07,28,12,55,19.50
2007,07,28,12,56,19.40
2007,07,28,12,57,19.40
2007,07,28,12,58,19.50
2007,07,28,12,59,19.50
2007,07,28,13,00,19.40
2007,07,28,13,01,19.40
2007,07,28,13,02,19.40
2007,07,28,13,03,19.70
2007,07,28,13,04,19.80
2007,07,28,13,05,19.70
2007,07,28,13,06,19.60
2007,07,28,13,07,19.60
2007,07,28,13,08,19.50
2007,07,28,13,09,19.50
2007,07,28,13,10,19.60
2007,07,28,13,11,19.60
2007,07,28,13,12,19.50
2007,07,28,13,13,19.50
2007,07,28,13,14,19.50
2007,07,28,13,15,19.50
2007,07,28,13,16,19.60
2007,07,28,13,17,19.50
2007,07,28,13,18,19.50
2007,07,28,13,19,19.50
2007,07,28,13,20,19.40
2007,07,28,13,21,19.40
2007,07,28,13,22,19.40
2007,07,28,13,23,19.40
2007,07,28,13,24,19.60
2007,07,28,13,25,19.60
2007,07,28,13,26,19.60
2007,07,28,13,27,19.50
2007,07,28,13,28,19.50
2007,07,28,13,29,19.60
2007,07,28,13,30,19.70
2007,07,28,13,31,19.60
2007,07,28,13,32,19.40
2007,07,28,13,33,19.40
2007,07,28,13,34,19.40
2007,07,28,13,35,19.40
2007,07,28,13,36,19.40
2007,07,28,13,37,19.40
2007,07,28,13,38,19.40
2007,07,28,13,39,19.60
2007,07,28,13,40,19.70
2007,07,28,13,41,19.70
2007,07,28,13,42,19.70
2007,07,28,13,43,19.50
2007,07,28,13,44,19.30
2007,07,28,13,45,19.30
2007,07,28,13,46,19.30
2007,07,28,13,47,19.30
2007,07,28,13,48,19.30
2007,07,28,13,49,19.20
2007,07,28,13,50,19.20
2007,07,28,13,51,19.30
2007,07,28,13,52,19.30
2007,07,28,13,53,19.40
2007,07,28,13,54,19.40
2007,07,28,13,55,19.50
2007,07,28,13,56,19.70
2007,07,28,13,57,19.70
2007,07,28,13,58,19.60
2007,07,28,13,59,19.50
2007,07,28,14,00,19.50
2007,07,28,14,01,19.40
2007,07,28,14,02,19.40
2007,07,28,14,03,19.40
2007,07,28,14,04,19.20
2007,07,28,14,05,19.10
2007,07,28,14,06,18.90
2007,07,28,14,07,18.90
2007,07,28,14,08,18.90
2007,07,28,14,09,18.90
2007,07,28,14,10,18.90
2007,07,28,14,11,18.90
2007,07,28,14,12,18.90
2007,07,28,14,13,19.00
2007,07,28,14,14,19.20
2007,07,28,14,15,19.30
2007,07,28,14,16,19.50
2007,07,28,14,17,19.50
2007,07,28,14,18,19.40
2007,07,28,14,19,19.30
2007,07,28,14,20,19.20
2007,07,28,14,21,19.20
2007,07,28,14,22,19.20
2007,07,28,14,23,19.00
2007,07,28,14,24,18.90
2007,07,28,14,25,18.80
2007,07,28,14,26,18.60
2007,07,28,14,27,18.60
2007,07,28,14,28,18.60
2007,07,28,14,29,18.60
2007,07,28,14,30,18.60
2007,07,28,14,31,18.70
2007,07,28,14,32,18.70
2007,07,28,14,33,18.70
2007,07,28,14,34,18.60
2007,07,28,14,35,18.60
2007,07,28,14,36,18.80
2007,07,28,14,37,19.00
2007,07,28,14,38,19.10
2007,07,28,14,39,19.20
2007,07,28,14,40,19.30
2007,07,28,14,41,19.40
2007,07,28,14,42,19.40
2007,07,28,14,43,19.40
2007,07,28,14,44,19.50
2007,07,28,14,45,19.40
2007,07,28,14,46,19.40
2007,07,28,14,47,19.20
2007,07,28,14,48,19.10
2007,07,28,14,49,18.90
2007,07,28,14,50,19.00
2007,07,28,14,51,19.10
2007,07,28,14,52,19.20
2007,07,28,14,53,19.20
2007,07,28,14,54,19.20
2007,07,28,14,55,19.20
2007,07,28,14,56,19.20
2007,07,28,14,57,19.20
2007,07,28,14,58,19.20
2007,07,28,14,59,19.20
2007,07,28,15,00,19.30
2007,07,28,15,01,19.40
2007,07,28,15,02,19.50
2007,07,28,15,03,19.60
2007,07,28,15,04,19.70
2007,07,28,15,05,19.70
2007,07,28,15,06,19.80
2007,07,28,15,07,19.80
2007,07,28,15,08,19.80
2007,07,28,15,09,19.70
2007,07,28,15,10,19.70
2007,07,28,15,11,19.60
2007,07,28,15,12,19.50
2007,07,28,15,13,19.50
2007,07,28,15,14,19.60
2007,07,28,15,15,19.60
2007,07,28,15,16,19.80
2007,07,28,15,17,19.80
2007,07,28,15,18,19.70
2007,07,28,15,19,19.60
2007,07,28,15,20,19.70
2007,07,28,15,21,19.80
2007,07,28,15,22,19.70
2007,07,28,15,23,19.70
2007,07,28,15,24,19.70
2007,07,28,15,25,19.90
2007,07,28,15,26,19.90
2007,07,28,15,27,19.80
2007,07,28,15,28,19.70
2007,07,28,15,29,19.60
2007,07,28,15,30,19.60
2007,07,28,15,31,19.50
2007,07,28,15,32,19.50
2007,07,28,15,33,19.50
2007,07,28,15,34,19.40
2007,07,28,15,35,19.50
2007,07,28,15,36,19.50
2007,07,28,15,37,19.50
2007,07,28,15,38,19.60
2007,07,28,15,39,19.70
2007,07,28,15,40,19.70
2007,07,28,15,41,19.70
2007,07,28,15,42,19.70
2007,07,28,15,43,19.60
2007,07,28,15,44,19.60
2007,07,28,15,45,19.60
2007,07,28,15,46,19.60
2007,07,28,15,47,19.70
2007,07,28,15,48,19.80
2007,07,28,15,49,19.90
2007,07,28,15,50,19.90
2007,07,28,15,51,20.00
2007,07,28,15,52,20.10
2007,07,28,15,53,20.20
2007,07,28,15,54,20.20
2007,07,28,15,55,20.20
2007,07,28,15,56,20.20
2007,07,28,15,57,20.20
2007,07,28,15,58,20.20
2007,07,28,15,59,20.20
2007,07,28,16,00,20.20
2007,07,28,16,01,20.10
2007,07,28,16,02,19.90
2007,07,28,16,03,19.80
2007,07,28,16,04,19.70
2007,07,28,16,05,19.60
2007,07,28,16,06,19.50
2007,07,28,16,07,19.40
2007,07,28,16,08,19.30
2007,07,28,16,09,19.30
2007,07,28,16,10,19.30
2007,07,28,16,11,19.30
2007,07,28,16,12,19.30
2007,07,28,16,13,19.30
2007,07,28,16,14,19.20
2007,07,28,16,15,19.20
2007,07,28,16,16,19.20
2007,07,28,16,17,19.20
2007,07,28,16,18,19.20
2007,07,28,16,19,19.10
2007,07,28,16,20,19.10
2007,07,28,16,21,19.10
2007,07,28,16,22,19.10
2007,07,28,16,23,19.30
2007,07,28,16,24,19.40
2007,07,28,16,25,19.40
2007,07,28,16,26,19.40
2007,07,28,16,27,19.40
2007,07,28,16,28,19.30
2007,07,28,16,29,19.30
2007,07,28,16,30,19.30
2007,07,28,16,31,19.30
2007,07,28,16,32,19.30
2007,07,28,16,33,19.30
2007,07,28,16,34,19.30
2007,07,28,16,35,19.40
2007,07,28,16,36,19.50
2007,07,28,16,37,19.60
2007,07,28,16,38,19.80
2007,07,28,16,39,19.90
2007,07,28,16,40,20.20
2007,07,28,16,41,20.20
2007,07,28,16,42,20.30
2007,07,28,16,43,20.40
2007,07,28,16,44,20.30
2007,07,28,16,45,20.40
2007,07,28,16,46,20.50
2007,07,28,16,47,20.50
2007,07,28,16,48,20.60
2007,07,28,16,49,20.60
2007,07,28,16,50,20.70
2007,07,28,16,51,20.80
2007,07,28,16,52,20.90
2007,07,28,16,53,21.10
2007,07,28,16,54,21.30
2007,07,28,16,55,21.40
2007,07,28,16,56,21.50
2007,07,28,16,57,21.60
2007,07,28,16,58,21.60
2007,07,28,16,59,21.70
2007,07,28,17,00,21.80
2007,07,28,17,01,21.80
2007,07,28,17,02,21.80
2007,07,28,17,03,21.80
2007,07,28,17,04,21.90
2007,07,28,17,05,21.90
2007,07,28,17,06,21.70
2007,07,28,17,07,21.70
2007,07,28,17,08,21.80
2007,07,28,17,09,21.90
2007,07,28,17,10,22.10
2007,07,28,17,11,22.20
2007,07,28,17,12,22.30
2007,07,28,17,13,22.20
2007,07,28,17,14,21.90
2007,07,28,17,15,21.60
2007,07,28,17,16,21.50
2007,07,28,17,17,21.40
2007,07,28,17,18,21.30
2007,07,28,17,19,21.30